[[{"header":{"parameterUnit":"m.s-1","parameterCategory":1,"la1":30.2991,"la2":30.254,"lo1":-89.0895,"lo2":-89.0444,"dy":0.0017,"dx":0.0017,"nx":28,"ny":28,"refTime":"2025-03-03T03:00:00:Z","depth":0,"parameterNumber":2,"parameterNumberName":"U-component_of_WINDS"},"data":[0,0,0,0,0,0,0,0,0,0,0,0,0,0,0,0,0,0,0,0,0,0,0,0,0,0,0,0,0,0,0,0,0,0,0,0,0,0,0,0,0,0,0,0,0,0,0,0,0,0,0,0,0,0,0,0,0,0,-3.3723,-3.3723,0,-3.3763,-3.3763,-3.3764,-3.3662,-3.3659,-3.3656,-3.3653,-3.3691,-3.3695,-3.3699,0,0,0,0,0,0,0,0,0,0,0,0,0,-3.3557,-3.356,-3.3723,-3.3723,-3.3724,-3.3763,-3.3763,-3.3764,-3.3663,-3.3659,-3.3655,-3.3651,-3.369,-3.3695,-3.3699,0,0,0,0,0,0,0,0,0,0,0,0,0,-3.3616,-3.3562,-3.3722,-3.3678,-3.3674,-3.3763,-3.3763,-3.3764,-3.3664,-3.3659,-3.3654,-3.365,-3.3688,-3.3694,-3.37,-3.3832,0,0,-3.3718,-3.3721,0,0,0,0,0,0,0,0,-3.3613,-3.3622,-3.3684,-3.3681,-3.3677,-3.3703,-3.3719,-3.3787,-3.3665,-3.3668,-3.3653,-3.3647,-3.3699,-3.3704,-3.3721,-3.3834,-3.3836,-3.3719,-3.3722,-3.3725,-3.3727,0,0,0,0,0,0,0,-3.3609,-3.362,-3.3738,-3.3685,-3.3681,-3.3656,-3.3659,-3.3731,-3.3709,-3.3667,-3.366,-3.3666,-3.3696,-3.3716,-3.3722,-3.3836,-3.3719,-3.3724,-3.3728,-3.373,-3.4062,-3.4066,0,0,0,0,0,0,-3.3611,-3.3617,-3.3737,-3.3739,-3.3633,-3.3662,-3.3666,-3.3699,-3.3708,-3.3705,-3.367,-3.3661,-3.3708,-3.3715,-3.3723,-3.3879,-3.3725,-3.3731,-3.3734,-3.4056,-3.4063,-3.4068,0,0,0,0,0,0,-3.3608,-3.3622,-3.3735,-3.3677,-3.3689,-3.367,-3.3709,-3.3703,-3.3722,-3.3711,-3.3706,-3.3695,-3.3705,-3.3714,-3.3806,-3.3879,-3.3733,-3.3739,-3.405,-3.4058,-3.4066,-3.4193,0,0,0,0,0,0,-3.3603,-3.3622,-3.3672,-3.3678,-3.3693,-3.3819,-3.3713,-3.3707,-3.3733,-3.3722,-3.3732,-3.373,-3.3702,-3.3798,-3.3812,-3.3885,-3.3743,-3.4044,-3.4054,-3.4063,-3.4183,-3.4205,-3.4223,0,0,0,0,0,-3.3598,-3.3705,-3.3675,-3.369,-3.3755,-3.3824,-3.3832,-3.3798,-3.374,-3.379,-3.3783,-3.3729,-3.3869,-3.3808,-3.3824,-3.3899,-3.4039,-3.4051,-3.4062,-3.4173,-3.42,-3.4223,0,0,0,0,0,0,-3.3706,-3.3705,-3.3672,-3.3785,-3.3806,-3.3807,-3.3869,-3.3827,-3.3864,-3.3852,-3.3808,-3.3811,-3.3912,-3.3914,-3.3847,-3.4028,-3.3944,-3.3959,-3.4023,-3.4049,-3.4069,-3.4066,-3.3748,0,0,0,0,0,-3.3744,-3.38,-3.3796,-3.3896,-3.3908,-3.3888,-3.3916,-3.3889,-3.3908,-3.3915,-3.3915,-3.3935,-3.3983,-3.4016,-3.406,-3.4183,-3.4184,-3.4242,-3.4262,-3.4279,-3.4293,-3.436,-3.4386,-3.4107,-3.4107,-3.4107,0,0,-3.382,-3.3827,-3.3865,-3.3918,-3.3931,-3.3991,-3.3895,-3.3961,-3.4005,-3.3925,-3.4013,-3.4014,-3.4033,-3.4142,-3.419,-3.4147,-3.4371,-3.4294,-3.4308,-3.4312,-3.4375,-3.4401,-3.4425,-3.4115,-3.4113,-3.4112,0,0,-3.3992,-3.4002,-3.4088,-3.4103,-3.4125,-3.411,-3.4131,-3.414,-3.4137,-3.4225,-3.4167,-3.4218,-3.4302,-3.4319,-3.4339,-3.452,-3.4472,-3.4535,-3.4642,-3.4708,-3.473,-3.4749,-3.4814,-3.4838,-3.4549,-3.4549,-3.4549,0,-3.4084,-3.4172,-3.4136,-3.4208,-3.4234,-3.4166,-3.4252,-3.4269,-3.4303,-3.4322,-3.4274,-3.438,-3.4388,-3.4501,-3.4546,-3.4563,-3.4586,-3.4533,-3.473,-3.4748,-3.4766,-3.4828,-3.4853,-3.4557,-3.4556,-3.4555,-3.4554,0,-3.4286,-3.4348,-3.4415,-3.4452,-3.4485,-3.4563,-3.4539,-3.4577,-3.4548,-3.4539,-3.463,-3.4638,-3.4683,-3.4708,-3.4678,-3.4817,-3.479,-3.4737,-3.4651,-3.4801,-3.4858,-3.4882,-3.4568,-3.4565,-3.4563,-3.4561,0,0,-3.4524,-3.4543,-3.4568,-3.4585,-3.4605,-3.4652,-3.4729,-3.4774,-3.4808,-3.4834,-3.4897,-3.4972,-3.4923,-3.4946,-3.4918,-3.4976,-3.5121,-3.4916,-3.4915,-3.4954,-3.5276,-3.5316,-3.5344,-3.509,-3.5094,-3.5098,-3.5274,0,-3.4694,-3.4826,-3.4797,-3.4927,-3.4985,-3.4923,-3.4989,-3.5009,-3.5004,-3.5051,-3.5044,-3.5098,-3.5029,-3.5043,-3.5097,-3.5092,-3.5185,-3.5079,-3.5148,-3.5151,-3.5146,-3.5374,-3.5416,-3.5582,-3.5296,-3.53,-3.5303,0,-3.4909,-3.4946,-3.5083,-3.5096,-3.5119,-3.518,-3.522,-3.5267,-3.5289,-3.528,-3.5308,-3.527,-3.5345,-3.526,-3.5364,-3.5292,-3.5319,-3.5321,-3.5327,-3.5332,-3.5236,-3.5386,-3.5634,-3.5659,-3.5338,-3.5335,-3.5332,0,-3.507,-3.5154,-3.5247,-3.5264,-3.5281,-3.5326,-3.5335,-3.5352,-3.5382,-3.5418,-3.5437,-3.5481,-3.5505,-3.5539,-3.5514,-3.5454,-3.5623,-3.5535,-3.5619,-3.562,-3.5656,-3.5654,-3.5913,-3.5674,-3.5674,-3.5673,-3.5673,0,-3.5262,-3.5348,-3.5321,-3.5378,-3.5473,-3.5439,-3.5534,-3.5536,-3.5552,-3.5608,-3.5557,-3.5611,-3.5575,-3.5626,-3.5607,-3.5697,-3.5708,-3.5703,-3.5697,-3.5708,-3.5709,-3.5725,-3.5713,-3.568,-3.5678,-3.5677,-3.5676,0,-3.5458,-3.5443,-3.554,-3.555,-3.5555,-3.5625,-3.5633,-3.5686,-3.5678,-3.575,-3.5765,-3.5752,-3.5809,-3.5789,-3.5849,-3.5837,-3.5952,-3.593,-3.5945,-3.594,-3.6025,-3.6018,-3.6303,-3.634,-3.6077,-3.6079,-3.6082,0,-3.5581,-3.5647,-3.5665,-3.57,-3.5714,-3.577,-3.5802,-3.5772,-3.5807,-3.5838,-3.5888,-3.5942,-3.5983,-3.6079,-3.6074,-3.6121,-3.61,-3.6198,-3.6107,-3.6117,-3.6103,-3.6099,-3.6106,-3.6215,-3.6219,-3.6221,-3.6223,0,-3.5803,-3.5793,-3.5841,-3.5888,-3.5928,-3.5963,-3.5993,-3.6024,-3.5996,-3.6038,-3.6098,-3.6131,-3.6195,-3.6249,-3.6292,-3.63,-3.6258,-3.6252,-3.6274,-3.6285,-3.6292,-3.629,-3.5995,-3.6245,-3.6243,-3.6241,-3.624,-3.6239,-3.5966,-3.6022,-3.6045,-3.6101,-3.6121,-3.6151,-3.6203,-3.6203,-3.6252,-3.6303,-3.6282,-3.6352,-3.6373,-3.6427,-3.6442,-3.6495,-3.6458,-3.6489,-3.6497,-3.6506,-3.6517,-3.6284,-3.6503,-3.6502,-3.6502,-3.6501,-3.6501,0,-3.6185,-3.6198,-3.625,-3.6295,-3.634,-3.6298,-3.633,-3.637,-3.6432,-3.6457,-3.65,-3.6569,-3.6623,-3.6624,-3.6673,-3.6716,-3.6698,-3.673,-3.6726,-3.6729,-3.6548,-3.6524,-3.6744,-3.6744,-3.6744,-3.6744,-3.6744,-3.6744,-3.6304,-3.6398,-3.6391,-3.6495,-3.6506,-3.6575,-3.6597,-3.6625,-3.6645,-3.6725,-3.677,-3.6771,-3.6787,-3.6838,-3.6885,-3.6884,-3.6905,-3.6945,-3.6936,-3.6766,-3.6742,-3.6719,-3.6696,-3.6949,-3.695,-3.7113,-3.7115,-3.7116]},{"header":{"parameterUnit":"m.s-1","parameterCategory":1,"la1":30.2991,"la2":30.254,"lo1":-89.0895,"lo2":-89.0444,"dy":0.0017,"dx":0.0017,"nx":28,"ny":28,"refTime":"2025-03-03T03:00:00:Z","depth":0,"parameterNumber":3,"parameterNumberName":"V-component_of_WINDS"},"data":[0,0,0,0,0,0,0,0,0,0,0,0,0,0,0,0,0,0,0,0,0,0,0,0,0,0,0,0,0,0,0,0,0,0,0,0,0,0,0,0,0,0,0,0,0,0,0,0,0,0,0,0,0,0,0,0,0,0,-1.8734,-1.8736,0,-1.8888,-1.889,-1.8892,-1.894,-1.8939,-1.8939,-1.8938,-1.9099,-1.9103,-1.9108,0,0,0,0,0,0,0,0,0,0,0,0,0,-1.8484,-1.8488,-1.8734,-1.8736,-1.8738,-1.8888,-1.889,-1.8892,-1.894,-1.8939,-1.8938,-1.8938,-1.9097,-1.9103,-1.9109,0,0,0,0,0,0,0,0,0,0,0,0,0,-1.8611,-1.849,-1.8734,-1.878,-1.8786,-1.8888,-1.889,-1.8893,-1.894,-1.8939,-1.8938,-1.8937,-1.9095,-1.9102,-1.911,-1.9178,0,0,-1.9132,-1.9136,0,0,0,0,0,0,0,0,-1.8603,-1.862,-1.8771,-1.8777,-1.8783,-1.8894,-1.8861,-1.8988,-1.8941,-1.8882,-1.8938,-1.8937,-1.9032,-1.9044,-1.9076,-1.9185,-1.9192,-1.9133,-1.9137,-1.9141,-1.9143,0,0,0,0,0,0,0,-1.8595,-1.8614,-1.8795,-1.8773,-1.8781,-1.8794,-1.8811,-1.8885,-1.8961,-1.8887,-1.8891,-1.8908,-1.9035,-1.9068,-1.908,-1.9194,-1.9133,-1.9139,-1.9144,-1.9147,-1.9368,-1.9369,0,0,0,0,0,0,-1.8578,-1.8606,-1.879,-1.88,-1.8689,-1.8799,-1.8818,-1.886,-1.896,-1.8975,-1.8909,-1.891,-1.9056,-1.9071,-1.9085,-1.9172,-1.9141,-1.9148,-1.9152,-1.9366,-1.9368,-1.937,0,0,0,0,0,0,-1.8572,-1.8594,-1.8784,-1.8704,-1.8729,-1.8805,-1.8851,-1.8863,-1.8897,-1.8977,-1.8991,-1.8929,-1.9056,-1.9075,-1.9154,-1.9178,-1.9151,-1.9158,-1.9365,-1.9367,-1.9369,-1.9345,0,0,0,0,0,0,-1.8565,-1.8591,-1.8617,-1.8704,-1.8733,-1.8849,-1.8852,-1.8867,-1.8909,-1.8912,-1.9,-1.9013,-1.9056,-1.9143,-1.9162,-1.9188,-1.9164,-1.9363,-1.9366,-1.9368,-1.9344,-1.9346,-1.9348,0,0,0,0,0,-1.8556,-1.8605,-1.8619,-1.8641,-1.8767,-1.8851,-1.8867,-1.8915,-1.8911,-1.8938,-1.899,-1.901,-1.9172,-1.915,-1.9172,-1.9201,-1.9362,-1.9365,-1.9368,-1.9343,-1.9346,-1.9348,0,0,0,0,0,0,-1.8521,-1.8618,-1.8633,-1.8712,-1.8773,-1.8859,-1.8895,-1.8916,-1.898,-1.898,-1.9038,-1.9057,-1.9132,-1.9175,-1.9148,-1.9272,-1.9268,-1.9275,-1.9242,-1.9245,-1.9247,-1.9235,-1.917,0,0,0,0,0,-1.8522,-1.8581,-1.8663,-1.8725,-1.8754,-1.8819,-1.8857,-1.8888,-1.8954,-1.898,-1.9037,-1.91,-1.9166,-1.9208,-1.9272,-1.935,-1.937,-1.9381,-1.9382,-1.9384,-1.939,-1.9434,-1.944,-1.938,-1.938,-1.938,0,0,-1.8526,-1.8586,-1.862,-1.8719,-1.877,-1.883,-1.884,-1.8904,-1.8949,-1.899,-1.9068,-1.9112,-1.9187,-1.9265,-1.9303,-1.9303,-1.9411,-1.9388,-1.9388,-1.9394,-1.9438,-1.9444,-1.9449,-1.9382,-1.9382,-1.9381,0,0,-1.8564,-1.8615,-1.8672,-1.8722,-1.8798,-1.884,-1.8854,-1.8937,-1.8967,-1.9046,-1.9078,-1.9133,-1.9244,-1.9296,-1.9337,-1.9393,-1.9414,-1.9412,-1.9422,-1.9465,-1.947,-1.9474,-1.9495,-1.9501,-1.9418,-1.9418,-1.9418,0,-1.8559,-1.865,-1.8699,-1.876,-1.8803,-1.8841,-1.89,-1.8947,-1.904,-1.9069,-1.9067,-1.9207,-1.926,-1.9352,-1.9365,-1.9397,-1.9415,-1.9403,-1.9465,-1.947,-1.9475,-1.9495,-1.9503,-1.9417,-1.9417,-1.9417,-1.9417,0,-1.8641,-1.8704,-1.8741,-1.8829,-1.8876,-1.8935,-1.8994,-1.9035,-1.9062,-1.9105,-1.9185,-1.925,-1.9328,-1.9352,-1.938,-1.9448,-1.9445,-1.9454,-1.9451,-1.9479,-1.9499,-1.9507,-1.9416,-1.9416,-1.9416,-1.9417,0,0,-1.8662,-1.8775,-1.8788,-1.8828,-1.8914,-1.8964,-1.9025,-1.9101,-1.9136,-1.9199,-1.9252,-1.9345,-1.9353,-1.9399,-1.9433,-1.947,-1.9511,-1.9474,-1.9477,-1.9479,-1.959,-1.9583,-1.9591,-1.9525,-1.9527,-1.9528,-1.9584,0,-1.8711,-1.8822,-1.8867,-1.8957,-1.9015,-1.9052,-1.9106,-1.9165,-1.9206,-1.9263,-1.9309,-1.9374,-1.9379,-1.9408,-1.9446,-1.9497,-1.9534,-1.9494,-1.9576,-1.9579,-1.9557,-1.9602,-1.9595,-1.9645,-1.9592,-1.9593,-1.9594,0,-1.8784,-1.8845,-1.8941,-1.9019,-1.9045,-1.9093,-1.9165,-1.9218,-1.9286,-1.9314,-1.9364,-1.9396,-1.9463,-1.9454,-1.9547,-1.9519,-1.9556,-1.9586,-1.9589,-1.9599,-1.9588,-1.9613,-1.9661,-1.9669,-1.9607,-1.9606,-1.9605,0,-1.879,-1.8897,-1.8968,-1.9001,-1.9094,-1.9126,-1.9167,-1.9233,-1.9275,-1.9339,-1.9367,-1.9438,-1.9477,-1.9531,-1.9581,-1.957,-1.9669,-1.9665,-1.9695,-1.9694,-1.9715,-1.9713,-1.977,-1.9737,-1.9737,-1.9737,-1.9737,0,-1.884,-1.8897,-1.8972,-1.9015,-1.908,-1.9131,-1.9195,-1.9238,-1.9296,-1.935,-1.9386,-1.9435,-1.9498,-1.9556,-1.9595,-1.9666,-1.9684,-1.9708,-1.9718,-1.9706,-1.9702,-1.9731,-1.9729,-1.9739,-1.9738,-1.9738,-1.9738,0,-1.8858,-1.8911,-1.899,-1.9071,-1.9093,-1.9137,-1.9207,-1.9251,-1.9294,-1.9361,-1.9379,-1.9447,-1.9517,-1.9571,-1.9663,-1.9689,-1.9764,-1.9775,-1.9741,-1.9746,-1.9773,-1.977,-1.985,-1.9864,-1.9821,-1.9821,-1.9822,0,-1.8887,-1.8932,-1.9017,-1.9055,-1.9094,-1.9155,-1.9197,-1.9249,-1.9293,-1.9373,-1.9407,-1.9479,-1.9539,-1.9649,-1.9707,-1.9777,-1.979,-1.9813,-1.9801,-1.9786,-1.9791,-1.9788,-1.9793,-1.9815,-1.9815,-1.9815,-1.9815,0,-1.8934,-1.8957,-1.9016,-1.9085,-1.9135,-1.9192,-1.9249,-1.9278,-1.9341,-1.9388,-1.9459,-1.9505,-1.9597,-1.9669,-1.9744,-1.9787,-1.9812,-1.9818,-1.9829,-1.9817,-1.9795,-1.9808,-1.9745,-1.9817,-1.9817,-1.9816,-1.9816,-1.9816,-1.8959,-1.9,-1.9066,-1.9131,-1.9179,-1.9232,-1.9277,-1.9325,-1.9385,-1.9463,-1.949,-1.9563,-1.963,-1.9734,-1.9777,-1.9836,-1.9837,-1.9853,-1.9857,-1.986,-1.9858,-1.9785,-1.985,-1.985,-1.985,-1.985,-1.985,0,-1.9007,-1.9051,-1.911,-1.9189,-1.924,-1.9257,-1.9322,-1.9364,-1.9428,-1.9487,-1.9545,-1.9626,-1.9695,-1.9758,-1.983,-1.9865,-1.9878,-1.9882,-1.988,-1.989,-1.9853,-1.9836,-1.987,-1.987,-1.987,-1.987,-1.987,-1.987,-1.9038,-1.9108,-1.9139,-1.9234,-1.9278,-1.9349,-1.9384,-1.9433,-1.9481,-1.957,-1.9627,-1.9666,-1.9728,-1.9804,-1.9868,-1.9885,-1.991,-1.9911,-1.9931,-1.9895,-1.9893,-1.989,-1.9875,-1.9916,-1.9916,-1.9964,-1.9964,-1.9964]}]]